Regional Weather Roundup
Issued by NWS Bismarck, ND

Home | Current Version | Previous Version | Text Only | Print | Product List | Glossary On
Versions: 1 2 3 4 5 6 7 8 9 10 11 12 13 14 15 16 17 18 19 20 21 22 23 24 25 26 27 28 29 30 31 32 33 34 35 36 37 38 39 40 41 42 43 44 45 46 47 48 49 50
000
ASUS43 KBIS 040710
RWRBIS

NWR BROADCAST TEXT
NATIONAL WEATHER SERVICE BISMARCK ND
200 AM CDT TUE AUG 04 2015

NOTE: "FAIR" INDICATES FEW OR NO CLOUDS BELOW 12,000 FEET WITH NO
SIGNIFICANT WEATHER AND/OR OBSTRUCTIONS TO VISIBILITY.


CITY           SKY/WX    TMP DP  RH WIND       PRES   REMARKS
WILLISTON      CLEAR     64  51  62 E3        29.97S
MINOT          CLEAR     57  49  74 CALM      29.97S
MINOT AFB      CLEAR     52  48  87 W3        29.96F
BISMARCK       CLEAR     54  50  86 CALM      29.98F
DICKINSON      PTCLDY    55  49  80 E8        29.97F
GARRISON         N/A     55  50  83 CALM      29.99R
HETTINGER ARPT PTCLDY    61  51  70 E7        29.99S
JAMESTOWN      CLEAR     55  51  86 CALM      29.97F
BEACH          FAIR      59  50  72 SE6       29.97F
CROSBY         FAIR      50  50 100 CALM      29.99S
HARVEY         FAIR      50  48  93 NE6       29.98S
HAZEN          FAIR      50  46  87 CALM      29.99S
LINTON         FAIR      54  54 100 E8        29.97S
MANDAN         FAIR      59  50  72 E8        29.99S
OAKES            N/A     54  54 100 CALM      29.98S
STANLEY        FAIR      57  55  94 CALM      30.00S
$$

CITY           SKY/WX    TMP DP  RH WIND       PRES   REMARKS
GRAND FORKS    CLEAR     50  47  89 W5        29.94R
GRAND FORKS AF CLEAR     53  49  86 NW3       29.95R
DEVILS LAKE    CLEAR     59  50  72 N3        29.97R
FARGO          CLEAR     58  49  72 SW5       29.94F
CAVALIER       FAIR      54  50  87 NW3       29.96S
GRAFTON        FAIR      55  54  94 W5        29.96R
GWINNER          N/A     55  52  88 W5        29.98S
LANGDON        FAIR      45  43  93 CALM      29.99R
ROLLA          FAIR      46  46 100 N3        30.00S
WALHALLA       FAIR      52  52 100 MISG      29.97S
$$

CITY           SKY/WX    TMP DP  RH WIND       PRES   REMARKS
ABERDEEN       CLEAR     57  51  80 E3        29.96F
MOBRIDGE       PTCLDY    64  55  72 E9        29.94F
BUFFALO          N/A     67  53  61 SE9       29.92R
RAPID CITY     CLOUDY    69  60  73 N6        29.98R
GLASGOW        CLEAR     68  45  43 E16       29.89S
SIDNEY         PTCLDY   N/A N/A N/A CALM      29.94S
WOLF POINT     CLEAR     63  47  55 NE10      29.93S
GLENDIVE         N/A    N/A N/A N/A MISG        N/A
MILES CITY     CLOUDY    76  53  44 E7        29.88F
BAKER          MOCLDY    63  51  65 E8        29.97S
$$

CITY           SKY/WX    TMP DP  RH WIND       PRES   REMARKS
BILLINGS       CLOUDY    77  46  33 W10       29.89S
GREAT FALLS    CLOUDY    73  46  38 SW8       29.82S
REGINA         PTCLDY    59  50  72 SE9       29.99R
ESTEVAN        CLEAR     54  48  82 E6        29.99S
$$



USA.gov is the U.S. government's official web portal to all federal, state and local government web resources and services.